Regional Weather Roundup
Issued by NWS Melbourne, FL

Current Version | Previous Version | Text Only | Print | Product List | Glossary On
Versions: 1 2 3 4 5 6 7 8 9 10 11 12 13 14 15 16 17 18 19 20 21 22 23 24 25 26 27
187
ASUS42 KMLB 221704
RWRMLB
HOURLY WEATHER ROUNDUP AROUND FLORIDA
NATIONAL WEATHER SERVICE OFFICE MELBOURNE FL
100 PM EDT SAT JUL 22 2017

CITY           SKY/WX    TMP DP  RH WIND       PRES   REMARKS
MELBOURNE      MOSUNNY   91  73  55 VRB7      30.08F HX  99
FORT PIERCE    MOSUNNY   92  76  59 S7        30.09F HX 104
ORLANDO INTL   PTSUNNY   88  75  65 S10       30.07F
DAYTONA BEACH  PTSUNNY   90  76  63 VRB5      30.06F HX 101
VERO BEACH     MOSUNNY   89  72  56 S6        30.09F
$$
...ELSEWHERE ACROSS CENTRAL FLORIDA...

CITY           SKY/WX    TMP DP  RH WIND       PRES   REMARKS
PATRICK AFB    SUNNY     87  79  76 SE12      30.07F HX 100
CAPE CANAVERAL PTSUNNY   90  76  62 S9        30.06F HX 101
TITUSVILLE     PTSUNNY   91  73  55 S8        30.08  HX 100
ORLANDO EXEC   NOT AVBL
LEESBURG       CLOUDY    83  75  77 S9        30.08F
THE VILLAGES   FOG       77  75  94 CALM      29.98S VSB 3/4
SANFORD        MOSUNNY   90  73  57 S10       30.06F HX  98
DELAND         CLOUDY    88  73  62 S6        30.06F
NEW SMYRNA BCH PTSUNNY   91  75  59 E8        30.07F HX 102
ORMOND BEACH   PTSUNNY   90  73  58 S6        30.06F HX  98
WINTER HAVEN   CLOUDY    82  70  66 S7        30.09S THUNDER
KISSIMMEE      MOSUNNY   88  76  67 S8        30.08F HX  99
OKEECHOBEE     MOSUNNY   88  75  66 S7        30.10F
TAMPA          CLOUDY    84  76  76 S6        30.09F
$$
...NORTHERN FLORIDA...

CITY           SKY/WX    TMP DP  RH WIND       PRES   REMARKS
PALM COAST     MOSUNNY   88  73  62 CALM      30.06F
ST AUGUSTINE   PTSUNNY   87  78  74 SE12      30.07F HX 100
OCALA          PTSUNNY   83  76  79 S8        30.09S THUNDER
GAINESVILLE    CLOUDY    84  75  74 E6        30.09F
JACKSONVILLE   MOSUNNY   90  72  55 W3        30.04F
TALLAHASSEE    PTSUNNY   89  75  63 W5        30.04F THUNDER HX  99
$$
...ALONG THE SOUTHEAST COAST TO THE KEYS...

CITY           SKY/WX    TMP DP  RH WIND       PRES   REMARKS
STUART         MOSUNNY   88  75  66 E12       30.11F
WEST PALM BCH  PTSUNNY   89  74  60 SE10      30.10F HX  98
MIAMI          PTSUNNY   91  74  57 E10       30.10F HX 100
KEY WEST       SUNNY     89  77  67 SE10      30.09F HX 101
$$
...MARINE REPORTS...

STATION/POSITION TIME  TEMP    WIND        PRES    WAVE   SWELL
                       AIR SEA DIR/SP/G            HT/PER HT/PER
                 (UTC) (F)     (DEG/KT/KT) (MB)    (FT/S) (FT/S)
ST AUGUSTINE FP  1600   81 80  130/ 10/ 11 1018.9F
20NM E CAPE CANA 1650   82 83  180/  6/  6 1020.3F   2/ 8   2/ 8
120 E NEW SMYRNA 1650   84 85  220/ 10/ 12 1019.5S   3/ 9   2/ 9
TRIDENT PIER     1624   86 82  130/  7/  9 1020.6
SEBASTIAN INLET  1700   81     100/  6     1020.0
4NM E PORT CANAV 1651      83                N/A     2/ 9
6NM NE FPR INLET 1630      84                N/A     2/10
SETTLEMENT PT GB 1600   85     180/  7/  8 1020.1R
$$




USA.gov is the U.S. government's official web portal to all federal, state and local government web resources and services.